Location: Minneapolis
(45.0000°N, 93.0000°W)
Time: 19:31:45

ISS - Pass Details

Date: 11 March 2018
Orbit: 403 x 406 km, 51.6° (Epoch: 24 March)

Event Time Altitude Azimuth Distance (km) Brightness Sun altitude
Exits shadow 06:28:01 11° 311° (NW) 1,393 -1.5 -12.1°
Maximum altitude 06:30:42 28° 11° (N) 800 -2.2 -11.6°
Drops below altitude 10° 06:33:36 10° 72° (ENE) 1,462 0.5 -11.1°
Sets 06:35:52 0° 85° (E) 2,320 2.3 -10.7°
